Weather History for K8D3 - August, 2012

Change the Weather History Date:

Wednesday, August 15, 2012

  Actual Average Record
Temperature  
Mean Temperature 72 °F 70 °F  
Max Temperature 86 °F 81 °F 106 °F (1937)
Min Temperature 57 °F 58 °F 39 °F (1979)
Degree Days  
Heating Degree Days 0 1  
Month to date heating degree days 16 6  
Since 1 June heating degree days 43 81  
Since 1 July heating degree days 16 19  
Cooling Degree Days 7 5  
Month to date cooling degree days 54 90  
Year to date cooling degree days 607 412  
Since 1 June cooling degree days 549 389  
Growing Degree Days 20 (Base 50)    
Moisture  
Dew Point 61 °F    
Average Humidity 80    
Maximum Humidity 100    
Minimum Humidity 59    
Precipitation  
Precipitation 0.00 in 0.06 in 2.75 in (2011)
Month to date precipitation 0.83 1.26  
Year to date precipitation 14.04 15.56  
Sea Level Pressure  
Sea Level Pressure 29.71 in    
Wind  
Wind Speed 11 mph (South)    
Max Wind Speed 30 mph    
Max Gust Speed 38 mph    
T = Trace of Precipitation, MM = Missing Value Source: NWS Daily Summary

Daily Weather History Graph

Daily Weather History Graph

Search for Another Location

Airport or City:

Trip Planner

Search our weather history database for the weather conditions in past years. The results will help you decide how hot, cold, wet, or windy it might be!

Date:

Astronomy

Aug. 15, 2012 Rise Set
Actual Time 6:28 AM CDT 8:34 PM CDT
Civil Twilight 5:56 AM CDT 9:07 PM CDT
Nautical Twilight 5:16 AM CDT 9:46 PM CDT
Astronomical Twilight 4:32 AM CDT 10:30 PM CDT
Moon 4:23 AM CDT (8/15) 7:10 PM CDT (8/15)
Length of Visible Light 15h 10m
Length of Day
14h 06m
Waning Crescent, 4% of the Moon is Illuminated
Aug 15
Waning Crescent
Aug 17
New
Aug 24
First Quarter
Aug 31
Full
Sep 8
Last Quarter

Hourly Weather History & Observations

Time (CDT) Temp. Heat Index Dew Point Humidity Pressure Visibility Wind Dir Wind Speed Gust Speed Precip Events Conditions
12:56 AM 61.0 °F - 59.0 °F 93% 29.75 in - SSE 5.8 mph - N/A   Unknown
1:56 AM 61.0 °F - 59.0 °F 93% 29.73 in - SSE 5.8 mph - N/A   Unknown
2:56 AM 57.9 °F - 57.0 °F 97% 29.73 in - SSE 4.6 mph - N/A   Unknown
3:56 AM 57.9 °F - 57.0 °F 97% 29.71 in - South 5.8 mph - N/A   Unknown
4:56 AM 57.9 °F - 57.0 °F 97% 29.69 in - South 5.8 mph - N/A   Unknown
5:56 AM 60.1 °F - 59.0 °F 96% 29.68 in - South 9.2 mph - N/A   Unknown
6:56 AM 59.0 °F - 59.0 °F 100% 29.68 in - South 9.2 mph - N/A   Unknown
7:56 AM 60.1 °F - 60.1 °F 100% 29.67 in - South 9.2 mph - N/A   Unknown
8:56 AM 62.1 °F - 62.1 °F 100% 29.66 in - South 4.6 mph - N/A   Unknown
9:56 AM 66.0 °F - 64.0 °F 93% 29.65 in - SSE 6.9 mph - N/A   Unknown
10:56 AM 72.0 °F - 66.0 °F 81% 29.65 in - Variable 4.6 mph - N/A   Unknown
11:56 AM 75.9 °F - 66.9 °F 74% 29.64 in - ESE 5.8 mph - N/A   Unknown
12:56 PM 79.0 °F - 68.0 °F 69% 29.63 in - Variable 3.5 mph - N/A   Unknown
1:56 PM 82.0 °F 85.5 °F 69.1 °F 65% 29.62 in - SSE 4.6 mph - N/A   Unknown
2:56 PM 84.0 °F 87.0 °F 68.0 °F 58% 29.62 in - NW 13.8 mph - N/A   Unknown
3:56 PM 82.9 °F 87.0 °F 70.0 °F 65% 29.65 in - North 12.7 mph - N/A   Unknown
4:56 PM 75.9 °F - 64.0 °F 67% 29.67 in - NNW 25.3 mph 33.4 mph N/A   Unknown
5:56 PM 71.1 °F - 60.1 °F 68% 29.73 in - North 24.2 mph 36.8 mph N/A   Unknown
6:56 PM 68.0 °F - 57.9 °F 70% 29.76 in - NNW 21.9 mph 31.1 mph N/A   Unknown
7:56 PM 64.0 °F - 59.0 °F 84% 29.78 in - North 11.5 mph - N/A   Unknown
8:56 PM 64.0 °F - 59.0 °F 84% 29.81 in - NNW 13.8 mph - N/A   Unknown
9:56 PM 63.0 °F - 59.0 °F 87% 29.85 in - NNW 11.5 mph - N/A   Unknown
10:56 PM 62.1 °F - 57.0 °F 84% 29.88 in - North 13.8 mph - N/A   Unknown
11:56 PM 60.1 °F - 55.0 °F 83% 29.90 in - North 15.0 mph - N/A   Unknown